Погода в Брянском

Россия / Липецкая область     52°09′30″N   40°32′02″E
темп.,
°C
ветер,
м/с
пор.,
м/с
влажн.,
%
обл.,
%
осадки,
мм/ч
давл.,
гПа
погр.,
м
6 декабря, пн
пн600:00−3юв2268100 0.0 102026
03:00−3вюв2266100 0.0 102131
06:00−3юв2364100 0.0 102171
09:00−3вюв376183 0.0 1022215
12:000юв4751100 0.0 1023379
15:00−1вюв4753100 0.0 1022351
18:00−2вюв4963100 0.0 1023249
21:00−1юв51164100 0.0 1023398
7 декабря, вт
вт700:00−2юв51171100 0.0 1023405
03:00−2юв61282100 0.0 1023399
06:00−1юв71386100 0.0 1022543
09:00−1юв81589100 0.0 1021515
12:000юв91796100 3.1 1019510
15:00+1ююв91794100 6.2 1018511
18:00+2ююв81694100 0.2 1018461
21:00+2ююв81696100 0.2 1018455
8 декабря, ср
ср800:00+2ююв71793100 0.0 1017488
03:00+2ююв61691100 0.0 1017447
06:00+2ююв61491100 0.0 1017388
09:00+2ююв61490100 0.0 1018384
12:00+3юв61487100 0.0 1017459
15:00+3юв61388100 0.0 1016395
18:00+2юв51390100 0.0 1017350
21:00+2юв61392100 0.0 1016384
9 декабря, чт
чт900:00+2юв51293100 0.0 1016344
03:00+2юв51194100 0.0 1016328
06:00+1вюв4995100 0.0 1016236
09:00+1юв499684 0.0 1017255
12:00+3юв469038 0.0 1017288
15:00+3вюв369266 0.0 1017192
18:00+2вюв3793100 0.0 1018188
21:00+2вюв3692100 0.0 1019168
10 декабря, пт
пт1000:00+3юв3493100 0.0 1019101
03:00+3ююв2395100 0.0 101957
06:00+3ююв2396100 0.0 102071
09:00+4юв3495100 0.0 102078
12:00+4ю2595100 0.1 1021151
15:00+4ююз2297100 0.3 102156
18:00+4юв2295100 0.0 102229
21:00+4ююв349550 0.0 102295